www.pogodaiklimat.ru

Погода и климат >> Архив погоды >> Мексика >> Пуэрто-Пеньяско


ПОГОДА в Пуэрто-Пеньяско

  • Прогноз погоды в Пуэрто-Пеньяско
  • Монитор погоды в Пуэрто-Пеньяско

АРХИВ ПОГОДЫ в Пуэрто-Пеньяско

Время (UTC), дата Ветер
(напр.,м/с)
 
Видим.   Явления Облачность Т
(С)
Тd
(С)
f
(%)
Тe
(С)
Тes
(С)
Комфортность P
(гПа)
Po
(гПа)
Тmin
(С)
Tmax
(С)
R
(мм)
R24
(мм)
S
(см)
18 17.06 ЮВ 7 35 км ясно +29.8 +18.8 52 +35 +40 очень
душно
1009.6 1002.7 +24.3 +29.9
21 17.06 Ю 8 35 км ясно +31.0 +19.6 51 +37 +41 очень
душно
1008.9 1002.0
00 18.06 Ю 5 35 км ясно +30.0 +20.0 55 +36 +40 очень
душно
1007.5 1000.6 +24.3 +31.5
03 18.06 ЮВ 3 20 км ясно +26.0 +19.5 67 +31 +31 очень
душно
1007.6 1000.7
12 18.06 ЮВ 5 20 км ясно +24.8 +19.7 73 +30 +30 душно 1009.1 1002.2 +24.7 +31.5
15 18.06 ЮВ 5 35 км ясно +27.2 +16.7 53 +31 +34 душно 1010.7 1003.7
18 18.06 ЮВ 6 35 км ясно +30.4 +17.6 46 +34 +42 очень
душно
1012.0 1005.0 +24.7 +30.7
21 18.06 ЮВ 6 35 км ясно +31.8 +20.5 51 +39 +46 очень
душно
1011.7 1004.8
00 19.06 ЮВ 4 35 км ясно +29.2 +20.7 60 +36 +40 очень
душно
1010.5 1003.6 +24.7 +32.0
03 19.06 ЮВ 4 20 км ясно +26.7 +16.6 54 +30 +30 душно 1010.6 1003.7
12 19.06 ЮВ 4 20 км ясно +24.8 +20.0 75 +30 +30 душно 1011.2 1004.3 +22.0 +32.0
15 19.06 В 3 35 км ясно +27.8 +17.8 55 +32 +37 душно 1013.0 1006.0
18 19.06 ЮВ 3 35 км ясно +31.4 +11.4 29 +32 +47 жарко 1013.2 1006.3 +22.0 +31.5
21 19.06 Ю 3 35 км ясно +33.0 +19.3 44 +38 +54 опасность
солнечного
удара
1012.2 1005.3
00 20.06 Ю 1 35 км ясно +33.3 +12.6 28 +34 +41 очень
жарко
1010.1 1003.2 +22.0 +34.4
03 20.06 ЮВ 4 20 км ясно +26.2 +19.1 65 +31 +31 очень
душно
1010.2 1003.3
12 20.06 ЮВ 4 20 км ясно +25.1 +20.4 75 +31 +31 очень
душно
1009.8 1002.9 +21.5 +34.4
15 20.06 ЮВ 6 35 км ясно +27.2 +16.7 53 +31 +33 душно 1010.5 1003.6
18 20.06 ЮВ 5 35 км ясно +31.7 +16.6 40 +35 +45 очень
душно
1011.0 1004.1 +21.5 +31.7
21 20.06 ЮВ 8 35 км ясно +31.4 +17.3 43 +35 +39 очень
душно
1009.7 1002.8
00 21.06 ЮВ 6 35 км ясно +30.8 +16.9 43 +34 +37 очень
душно
1007.4 1000.5 +21.5 +32.6
03 21.06 ЮВ 7 20 км ясно +27.8 +17.8 55 +32 +32 душно 1006.4 999.5
12 21.06 ЮВ 6 20 км ясно +25.0 +18.5 67 +30 +30 душно 1007.1 1000.1 +24.8 +32.6
15 21.06 ЮВ 6 35 км ясно +27.2 +17.4 55 +31 +33 душно 1008.3 1001.3
18 21.06 ЮВ 6 35 км ясно +29.5 +18.8 53 +35 +42 очень
душно
1009.1 1002.2 +24.8 +30.0
21 21.06 ЮВ 5 35 км ясно +30.6 +18.9 50 +36 +46 очень
душно
1008.4 1001.5
00 22.06 ЮВ 5 35 км ясно +30.7 +18.0 47 +35 +38 очень
душно
1006.5 999.6 +24.8 +31.3
03 22.06 Ю 8 20 км ясно +26.7 +20.7 70 +33 +33 очень
душно
1005.6 998.7
00 23.06 Ю 2 35 км 5/0
[Ci]
+28.3 +22.9 73 +38 +43 очень
душно
1009.8 1002.9 +22.7 +28.8
03 23.06 З 1 20 км ясно +24.4 +21.0 81 +31 +31 очень
душно
1010.1 1003.2
12 23.06 ЮВ 4 20 км ясно +23.2 +19.3 79 +30 +30 очень
душно
1011.8 1004.8 +19.8 +28.8
15 23.06 ЮВ 3 35 км ясно +27.2 +20.0 65 +33 +38 очень
душно
1013.5 1006.5
15 24.06 В 3 35 км ясно +27.0 +18.5 60 +32 +36 очень
душно
1010.4 1003.3

 

Местоположение метеостанции Пуэрто-Пеньяско (Мексика): широта 31.30 долгота -113.55 высота над уровнем моря 62 м.

В архиве по умолчанию представлена погода в Пуэрто-Пеньяско за последнюю неделю. Архивные данные за месяц целиком и за предыдущие месяцы, начиная с января 2011 года, Вы можете получить, выбрав интересующий диапазон дат из раскрывающегося списка и нажав кнопку "Ввод!".


*Определитесь, кто Вы:
робот инопланетянин человек

Внимание! Время в таблицах - всемирное. Для получения местного времени необходимо прибавить поправку, которая равна -8 ч.

Смотрите также архив погоды в соседних городах и на ближайших метеорологических станциях:

Погода в Сан-Фелипе (Мексика) (123 км)
Погода в Альтаре (Мексика) (176 км)
Погода в Нуэво Леон (Мексика) (191 км)
Погода в Эрмосильо (Мексика) (344 км)
Погода в Эрмосильо Магна (Мексика) (351 км)
Погода в Накосари де Гарсия (Мексика) (384 км)
Погода в Гуаймасе (Мексика) (456 км)
Погода в Эмпальме (Мексика) (463 км)
Погода в Санта-Розалии (Мексика) (465 км)
Погода в Нуэво-Касас-Грандесе (Мексика) (549 км)

Пояснения к столбцам:

Ветер - указаны скорость ветра в м/с - средняя за 10 мин, порывы в срок и между сроками (в фигурных скобках) и направление, откуда дует ветер: С - северный, СВ - северо-восточный, В - восточный, ЮВ - юго-восточный, Ю - южный, ЮЗ - юго-западный, З - западный, СЗ - северо-западный.
Видимость - горизонтальная дальность видимости в метрах или километрах. При видимости от 1 до 10 км при отсутствии осадков обычно наблюдается дымка, при ухудшении видимости до 1 км и менее - туман. В сухую погоду видимость может ухудшаться дымом, пылью или мглою.
Явления - указаны атмосферные явления, наблюдавшиеся в срок или в последний час перед сроком; фигурными скобками обозначены явления, наблюдавшиеся между сроками (за 1-3 часа до срока); квадратными скобками обозначены град или гололедные отложения с указанием их диаметра в мм.
Облачность - указаны через наклонную черту общая и нижняя облачность в баллах и высота нижней границы облаков в метрах; квадратными скобками обозначены формы облаков: Ci - перистые, Cs - перисто-слоистые, Cc - перисто-кучевые, Ac - высококучевые, As - высокослоистые, Sc - слоисто-кучевые, Ns - слоисто-дождевые, Cu - кучевые, Cb - кучево-дождевые. Подробнее классификацию облаков см. в Атласе облаков (PDF).
T - Температура воздуха - температура, измеренная на высоте 2 м над землей.
Td - Температура точки росы - температура, при понижении до которой содержащийся в воздухе водяной пар достигнет насыщения.
f - Относительная влажность воздуха - влажноcть воздуха, измеренная на высоте 2 м над землей.
Te - Эффективная температура - температура, которую ощущает одетый по сезону человек в тени. Характеристика душности погоды. При расчете учитывается влияние влажности воздуха и скорости ветра на теплоощущения человека.
Tes - Эффективная температура на солнце - температура, которую ощущает человек, с поправкой на солнечный нагрев. Характеристика знойности погоды. Зависит от высоты солнца над горизонтом, облачности и скорости ветра. Ночью, в пасмурную погоду, а также при ветре 12 м/с и более поправка равна нулю.
P - Атмосферное давление - приведенное к уровню моря атмосферное давление.
Po - Атмосферное давление - измеренное на уровне метеостанции атмосферное давление.
Tmin - Минимальная температура - минимум температуры воздуха на высоте 2 м над землей.
Tmax - Максимальная температура - максимум температуры воздуха на высоте 2 м над землей.
R - Количество осадков - Количество выпавших осадков за период времени, мм. При наведении курсора мыши на число - период времени, за который выпало указанное количество осадков.
R24 - Количество осадков - Количество выпавших осадков за 24 часа, мм.
S - Снежный покров - Высота снежного покрова, см. При наведении курсора мыши на число - состояние снежного покрова и степень покрытия местности в баллах.